STARLINK-1246 (45235 NORAD) Tracking and Keplerian Element Data

This shows tracking and keplerian element data for the satellite.

Feedback or suggestion? Click here.




ElementValue
Catalog45235
NameSTARLINK-1246
Epoch Orbit741
Epoch Day94.25001157
Epoch Year2020
RAAN52.1423
Inclination52.9991
Eccentricity0.000152
Argument of Perigee63.9786
Mean Anonmoly163.2541
Mean Motion15.0557583
Decay Rate0.00026719
L11 45235U 20012BK 20094.25001157 .00026719 00000-0 18462-2 0 9998
L22 45235 52.9991 52.1423 0001520 63.9786 163.2541 15.05575830 7413

Live tracking and technical data element details for STARLINK-1246 (NORAD 45235). STARLINK-1246 can be tracked NOW for your location showing map with azimuth and elevation plus other details from your city location.

Track the satellite on the map from your city or location and see movement details for azimuth, elevation, latitude, longitude, range, height, and movement on the map or in text.







IsCatalogInMostPopularTable: catalog: 45235, numindb: 5
Update: records affected: 1



GetName: 45235 STARLINK-1246

Hit Count: updated at: Mon, 06 Apr 2020 11:29:27 GMT